GFSCGP_850_temp_297.txt.gz
Temp
30 27 21 20 21 23 23 22 22 25 26 22 24 27 27 27 27 27 27 26 25 25 23 23 23 22 21 21 21 21 20 20 21 20 21 21 22 21 21 21 21 21 21 20
28 27 29 24 24 25 23 23 23 21 25 22 22 22 22 24 28 27 27 27 25 25 24 24 23 22 22 21 22 21 20 21 20 21 20 20 21 21 21 21 21 20 21 21
28 31 29 28 27 23 24 23 23 23 20 19 20 19 21 24 25 28 28 27 26 25 25 24 23 22 22 22 21 21 20 20 20 21 20 20 20 21 20 20 20 21 21 21
29 32 34 32 31 30 28 29 29 24 23 19 21 20 19 21 22 22 28 27 26 25 25 24 23 23 22 22 21 21 21 20 20 20 20 20 20 20 20 19 20 20 21 20
29 30 31 32 32 32 31 32 29 28 26 21 20 19 19 19 23 22 27 28 27 26 25 24 24 23 23 22 22 21 21 21 21 20 20 20 20 20 20 20 20 20 19 20
29 32 32 32 32 31 32 32 30 30 25 24 21 21 21 19 22 22 25 27 27 25 25 25 24 24 23 23 23 21 20 20 20 21 20 20 20 19 19 19 20 20 20 20
28 29 31 33 31 30 30 28 23 25 24 25 22 21 21 24 24 25 25 27 27 26 26 25 25 24 23 22 21 21 20 20 21 20 19 19 20 20 20 20 20 19 18 17
25 26 30 31 29 28 28 27 23 25 24 27 24 25 25 26 26 25 26 28 29 25 26 26 25 24 23 22 22 21 20 20 20 18 19 19 19 19 19 19 18 18 18 17
26 26 31 32 31 29 28 26 27 26 27 26 26 25 23 23 23 21 24 25 22 19 23 22 22 22 22 22 21 19 18 19 19 18 17 18 18 18 18 18 18 17 18 18
27 25 28 31 31 31 28 29 26 23 25 26 26 25 23 24 22 22 20 19 18 17 17 17 18 17 18 19 17 16 16 16 16 16 17 17 16 17 18 19 19 19 19 19
28 25 27 29 29 28 27 26 27 26 24 24 24 24 26 21 20 18 17 17 16 16 15 15 15 15 15 16 16 16 15 16 15 15 15 16 16 16 17 17 17 18 19 19
28 26 25 28 28 30 28 27 27 22 23 24 23 21 20 18 17 16 14 14 14 14 14 14 14 14 14 15 16 15 15 15 15 15 15 16 17 17 17 17 17 17 18 17
29 25 23 24 25 29 29 28 27 26 24 23 24 20 18 17 15 14 14 13 14 15 15 15 15 15 14 14 14 15 15 15 16 16 17 16 17 17 18 18 19 17 17 17
29 26 23 21 25 28 28 29 29 27 23 24 21 19 18 18 16 14 13 12 13 13 13 13 14 14 14 14 14 15 15 15 16 15 16 16 17 17 17 17 17 18 17 15
26 25 27 25 27 27 28 29 28 25 26 25 22 21 19 18 16 15 13 12 12 12 13 13 14 14 14 14 14 14 15 15 15 15 16 17 17 17 16 15 15 15 14 13
26 22 27 24 25 27 26 25 27 26 27 23 20 18 18 17 16 14 14 14 13 14 14 14 14 14 14 14 13 14 14 15 15 15 16 15 15 15 14 13 13 12 12 12
21 22 22 22 24 24 20 21 25 26 25 24 21 19 18 17 16 15 15 15 15 15 15 14 14 14 14 13 13 13 13 13 12 12 12 12 12 12 12 12 13 12 11 11
20 19 20 18 22 21 19 22 24 24 24 23 22 20 18 17 17 16 16 17 17 16 15 15 15 14 13 13 13 13 12 13 12 11 11 11 11 11 11 11 10 10 11 10
20 20 21 18 16 18 21 20 21 21 20 22 20 19 17 17 17 17 18 18 17 17 16 15 15 14 13 13 13 13 12 11 11 11 11 11 11 10 10 11 11 11 11 11
21 20 19 18 19 15 15 20 23 22 18 23 22 21 19 18 15 16 19 18 17 17 16 16 14 14 13 13 12 11 11 11 11 11 11 11 11 10 11 11 11 11 11 10
20 19 21 20 19 18 20 20 23 19 18 22 21 20 20 15 17 17 18 17 17 16 15 14 14 13 13 12 12 12 11 11 11 11 11 11 11 11 11 11 11 11 11 10
19 18 15 17 19 18 20 21 20 19 22 22 22 20 19 18 17 17 17 16 16 15 15 14 14 14 13 13 12 12 12 11 11 11 11 11 11 11 11 12 12 12 11 11
17 17 13 15 17 19 20 21 22 22 22 22 21 20 20 18 18 17 16 16 15 15 14 14 14 13 13 13 12 12 12 12 11 11 11 11 11 12 12 12 12 12 12 12
18 17 17 17 18 19 20 21 22 21 21 21 21 20 19 19 18 17 16 15 15 14 14 14 13 13 13 13 12 12 12 11 11 11 11 11 11 12 12 13 13 13 13 12
18 19 20 19 20 20 21 21 21 21 20 20 20 20 20 19 18 17 16 15 15 14 14 14 13 13 13 12 12 12 11 11 11 11 11 11 12 11 12 12 13 13 13 13
22 20 18 18 21 21 21 21 20 20 20 20 20 19 19 19 18 17 16 15 14 14 14 13 13 12 12 12 12 11 11 11 11 11 11 12 12 12 12 13 13 13 13 13

GFSCGP_850_temp_303.txt.gz
Temp
24 22 21 24 22 24 24 23 22 23 24 23 22 22 23 23 23 22 22 23 23 23 23 23 22 22 21 20 20 21 20 20 20 21 20 20 20 20 20 21 21 21 20 20
24 22 24 24 23 24 24 23 21 22 22 22 21 22 23 23 23 23 23 23 23 23 23 22 22 22 21 21 21 21 20 20 21 21 20 20 20 20 20 20 21 20 20 20
23 26 28 26 23 24 23 22 21 22 21 20 21 21 22 22 23 24 24 24 23 24 23 23 22 22 22 21 21 20 20 21 21 21 20 20 20 21 20 20 20 20 20 20
24 27 28 25 23 23 21 24 24 21 21 20 21 20 20 22 21 22 24 23 24 23 23 23 22 22 22 21 21 20 20 21 21 21 21 20 20 20 20 20 20 20 20 20
25 27 28 25 25 24 24 24 24 21 19 20 19 20 20 21 22 23 23 24 23 24 23 23 23 23 23 22 21 20 20 20 20 20 20 20 20 20 20 20 19 20 20 19
25 28 28 26 28 25 26 22 19 19 18 19 19 19 20 19 23 24 24 25 23 23 23 24 24 23 23 22 21 20 20 20 20 20 20 20 20 20 19 19 19 19 19 18
24 26 27 29 27 24 24 20 17 19 19 21 19 19 22 22 23 25 24 25 24 24 24 24 23 23 23 22 21 20 20 20 19 19 19 19 19 19 19 19 19 19 18 17
23 23 27 28 27 24 22 21 22 22 18 20 19 19 22 20 22 24 23 24 25 24 23 24 24 23 22 22 22 20 20 19 19 19 19 19 19 19 19 19 18 18 18 17
20 22 25 26 27 26 26 22 23 20 20 20 19 21 21 18 17 17 17 19 20 22 23 22 22 22 22 22 22 21 20 19 19 18 18 19 19 18 18 16 16 16 17 17
23 24 25 27 28 26 25 23 23 19 23 23 21 21 21 18 17 17 16 15 15 16 18 21 21 21 20 20 20 21 20 19 17 17 17 17 16 16 16 16 16 15 16 17
21 21 24 26 26 25 25 23 19 19 18 20 20 20 20 17 16 15 14 13 14 15 15 15 16 20 19 18 17 18 16 16 16 16 15 15 14 14 15 15 15 16 16 16
22 18 21 23 24 23 26 26 20 19 22 17 18 18 17 17 15 14 13 14 15 16 16 16 14 15 16 16 18 17 17 16 15 15 14 14 14 14 14 12 14 15 15 15
23 19 19 22 22 23 23 23 20 16 16 17 19 18 16 15 15 14 14 16 16 18 18 18 16 15 15 15 15 15 15 14 14 14 13 13 13 13 13 13 13 14 14 14
22 16 19 19 22 21 22 21 22 19 18 17 18 17 16 16 15 14 13 13 13 13 16 15 14 14 16 16 16 15 14 14 14 14 13 13 13 13 13 13 13 13 13 13
19 20 21 20 19 20 19 20 20 21 20 22 20 17 18 16 15 14 12 13 13 14 14 15 15 15 14 14 14 14 13 13 13 13 13 13 13 13 12 12 12 11 12 12
16 19 20 19 20 20 19 20 20 20 17 17 17 17 18 15 14 13 13 13 14 15 15 14 13 13 13 13 13 13 13 13 13 13 13 13 12 12 12 12 12 11 11 11
18 16 17 18 18 20 18 19 18 19 17 17 18 16 14 14 13 13 14 15 16 15 15 14 14 14 14 14 14 14 14 13 13 12 12 11 12 11 11 11 11 12 12 12
16 14 13 16 17 17 17 18 18 18 17 15 15 15 15 14 14 14 14 15 15 15 15 14 14 14 14 14 14 13 13 12 12 12 11 11 11 11 11 11 11 11 11 11
13 13 13 15 13 17 19 19 19 19 19 16 15 14 15 14 14 14 14 15 15 15 15 15 16 16 15 15 14 13 13 13 12 12 11 11 11 11 11 11 11 11 11 12
13 11 14 13 17 16 16 18 19 19 17 19 17 16 15 14 14 13 17 16 17 16 16 16 16 14 14 14 13 13 13 12 12 12 11 11 11 11 11 11 11 11 11 12
13 12 14 14 16 16 17 19 20 17 16 19 18 16 15 14 17 19 18 17 18 17 16 15 15 15 15 14 13 13 13 12 12 12 11 11 11 11 11 11 11 11 12 12
15 14 14 13 15 19 19 18 18 18 19 20 19 18 16 17 18 19 18 17 17 16 15 15 15 15 14 14 13 13 12 12 12 11 11 11 11 11 11 11 11 11 11 12
16 14 14 14 14 16 18 19 20 20 21 21 21 20 20 18 20 19 18 17 16 16 16 15 15 14 14 13 13 13 13 12 12 11 11 11 11 11 11 11 11 11 12 12
15 14 14 15 16 18 18 20 21 21 21 21 21 20 20 20 19 19 18 17 16 16 15 15 15 14 14 13 13 13 12 12 12 11 11 11 11 11 11 11 11 11 12 12
15 15 13 14 16 18 19 20 20 20 20 20 19 19 19 19 18 18 17 16 16 16 15 15 15 14 13 13 13 12 12 12 11 11 11 11 11 11 11 11 12 12 12 13
15 14 14 15 19 19 19 19 19 20 19 20 19 19 19 18 18 17 17 17 16 15 15 15 14 13 13 13 12 12 11 11 11 11 11 11 11 11 11 12 12 12 13 13

GFSCGP_850_temp_309.txt.gz
Temp
23 24 26 25 26 26 26 26 26 26 24 26 25 25 24 23 22 22 22 21 21 21 21 20 19 21 21 20 20 20 20 20 20 20 20 20 20 20 20 20 20 20 20 20
26 25 26 26 25 27 27 26 26 24 24 25 24 25 25 23 23 23 23 22 22 22 21 21 21 20 20 21 20 20 20 20 19 20 20 20 20 20 20 20 20 20 20 20
26 27 26 26 26 26 27 27 27 25 24 23 24 25 24 25 24 23 23 23 23 23 22 22 21 22 22 21 21 21 20 20 20 20 19 19 19 20 20 20 20 21 20 20
25 27 27 26 26 27 26 26 26 25 25 25 23 25 24 25 25 24 23 23 23 23 22 22 21 22 23 23 22 21 21 20 20 19 19 19 19 19 19 19 20 20 20 20
27 27 27 27 27 26 26 25 25 24 24 24 23 24 26 23 24 24 25 24 23 24 23 23 22 23 24 23 23 22 21 20 20 20 19 19 19 19 18 19 20 20 19 19
27 26 27 28 26 27 25 24 24 23 24 24 26 25 28 27 25 25 25 24 24 24 23 23 23 22 23 23 22 22 21 21 20 20 19 19 19 18 18 19 19 19 19 18
27 29 28 27 25 25 25 26 26 25 24 26 23 23 26 26 24 21 21 23 24 24 23 23 24 24 24 23 23 22 22 21 20 20 19 19 18 18 18 18 18 18 18 17
27 27 28 27 29 27 25 27 28 25 26 27 22 25 28 22 20 19 19 22 23 24 24 23 22 21 22 23 23 22 21 20 19 19 18 18 18 18 18 18 18 18 16 16
26 26 27 27 27 27 25 25 28 26 23 25 27 25 25 22 21 20 18 15 15 17 18 19 20 19 19 21 20 19 20 17 16 16 16 16 17 18 17 17 16 16 16 15
27 27 29 29 27 25 27 27 26 25 25 25 27 25 29 24 23 19 16 14 14 14 17 18 19 19 19 19 19 17 16 16 15 15 16 14 14 15 15 15 15 15 14 13
25 26 29 27 28 29 26 27 25 26 26 27 27 28 25 23 22 18 15 14 14 15 15 17 18 18 18 18 16 16 16 16 14 14 16 14 13 13 15 15 15 14 14 13
23 26 26 28 25 25 27 29 28 27 26 25 26 28 20 21 19 17 15 14 14 14 15 15 15 16 17 17 16 16 18 16 16 16 14 15 13 13 13 13 13 12 12 13
24 25 26 28 26 24 26 25 25 25 25 26 27 28 19 17 17 16 15 14 13 14 14 14 15 15 15 15 14 15 15 17 14 14 13 12 13 13 12 11 11 12 12 12
23 24 25 27 26 24 25 23 23 26 27 27 27 27 19 18 17 15 13 13 13 13 13 13 13 13 13 14 14 13 14 15 14 13 13 12 12 12 12 12 12 12 12 12
24 24 22 23 21 22 22 22 22 24 24 26 25 24 22 20 18 15 13 13 13 13 13 13 14 14 14 14 14 14 13 13 13 13 13 12 12 11 11 12 12 12 12 12
20 23 21 23 21 21 22 22 22 22 21 22 22 23 19 19 15 14 13 13 14 13 13 13 14 13 13 13 13 13 13 13 13 12 12 12 12 12 12 12 11 11 11 12
22 22 21 24 21 22 23 21 21 21 21 22 24 21 19 18 17 16 15 14 14 14 14 14 14 13 13 13 14 13 13 13 13 12 12 12 12 11 11 11 11 11 11 11
20 19 19 22 21 21 21 20 20 21 21 20 19 18 19 18 17 16 15 14 14 14 14 14 14 14 15 15 14 14 14 13 13 12 12 11 11 11 11 11 11 11 11 11
18 20 20 22 21 20 22 22 22 22 22 19 19 18 17 16 16 16 15 15 16 15 15 15 15 14 14 14 14 13 13 12 12 12 11 11 11 11 10 10 10 10 10 11
18 18 22 19 21 22 22 21 20 21 22 20 19 18 17 16 21 20 15 16 15 14 14 16 15 15 15 14 13 13 13 12 12 11 11 11 11 10 11 11 11 11 11 11
20 19 21 20 21 22 20 20 20 22 22 19 19 18 17 19 19 17 17 16 16 16 16 16 15 15 15 13 13 13 13 12 12 12 12 11 11 11 11 11 11 10 11 11
21 21 21 19 21 22 19 20 22 20 18 18 18 18 17 17 18 18 16 16 17 16 16 15 15 15 14 14 14 13 13 12 12 12 12 11 11 11 11 10 10 11 11 11
20 20 21 20 22 17 17 18 18 19 19 18 18 19 18 17 17 18 17 17 16 16 17 16 15 15 15 14 14 14 13 13 12 12 12 11 11 11 11 11 11 11 11 11
17 15 19 18 18 18 18 18 19 20 20 20 20 20 20 19 19 19 18 18 18 17 17 16 15 15 15 15 14 14 13 13 12 12 12 11 11 11 11 11 11 11 11 11
18 16 18 19 18 18 18 19 20 20 20 20 20 20 20 19 18 19 18 18 17 16 16 16 16 15 15 14 14 13 13 12 12 12 11 11 11 11 11 11 11 11 11 12
17 20 21 22 20 20 20 21 20 20 20 20 20 20 19 19 19 18 18 18 17 17 16 16 16 15 15 14 13 13 12 12 12 11 11 11 11 11 10 11 12 12 12 12

GFSCGP_850_temp_315.txt.gz
Temp
26 30 29 31 27 26 27 29 31 32 32 32 31 29 30 31 30 30 29 28 27 27 27 26 25 25 24 23 22 21 20 20 20 20 21 22 22 22 22 23 22 21 21 21
31 20 30 32 32 31 31 32 30 32 32 31 31 31 32 32 31 31 30 29 28 28 27 26 25 25 24 23 22 21 20 20 19 20 21 22 22 23 23 23 22 20 20 20
28 32 33 32 30 32 33 31 29 30 32 31 31 31 32 34 32 31 31 30 29 28 28 27 26 25 24 24 23 22 20 20 20 20 20 21 20 21 22 22 21 20 19 18
28 31 30 33 33 33 23 28 32 32 32 26 30 26 32 33 32 32 31 30 30 29 28 28 27 26 25 25 24 23 21 20 20 20 21 21 21 22 22 22 22 20 19 18
28 32 32 31 32 33 28 33 33 33 33 34 32 32 26 33 32 33 32 31 30 30 29 28 28 27 26 25 25 24 22 20 20 19 20 21 20 21 21 21 19 20 19 18
31 30 33 33 33 33 33 33 33 34 34 33 25 28 31 23 32 33 33 32 31 30 29 29 28 28 27 26 26 25 23 21 20 19 19 19 19 18 19 19 18 19 19 18
32 32 34 33 33 33 33 34 33 30 27 30 25 29 31 30 33 33 31 31 30 30 30 29 28 28 27 27 26 25 24 21 19 18 18 18 18 19 18 19 17 17 18 17
30 28 31 34 33 32 31 31 31 27 32 32 25 21 33 34 32 29 28 27 26 28 30 29 29 28 27 27 25 24 23 21 20 18 17 16 17 17 17 17 16 17 15 16
32 32 35 34 34 34 33 33 35 33 34 33 35 34 36 35 33 31 28 26 26 26 26 29 29 28 27 24 23 23 22 21 17 16 17 17 17 16 16 15 17 17 15 14
33 31 34 34 34 34 33 34 32 33 30 30 32 33 31 33 34 31 28 24 23 23 21 20 20 21 19 21 20 18 17 17 16 17 18 18 18 15 15 16 15 16 15 15
33 33 32 34 33 32 33 33 33 33 33 32 31 33 34 33 33 31 25 20 18 17 16 16 16 17 17 17 16 16 16 16 16 16 17 16 16 14 15 15 14 14 13 13
33 33 32 33 35 35 34 33 33 32 31 33 33 33 33 31 29 27 19 17 15 15 15 16 16 16 16 16 16 15 15 15 15 16 17 16 14 16 14 14 14 14 13 12
32 31 31 32 34 34 33 33 33 34 34 32 32 32 31 28 26 22 18 16 14 15 15 15 15 15 14 14 14 14 14 14 14 14 15 14 15 14 14 14 13 12 12 13
28 31 30 30 31 32 31 31 32 33 31 32 33 33 29 28 25 20 19 16 14 14 14 14 14 14 14 14 14 14 14 14 13 13 13 14 14 14 13 12 12 13 13 13
30 29 30 30 31 31 31 31 31 31 31 30 31 32 30 28 27 22 19 17 17 16 17 16 15 14 14 15 14 14 13 13 13 13 13 13 13 13 13 13 13 13 13 12
31 29 29 28 29 29 28 29 30 31 30 31 31 30 29 27 23 20 19 19 19 19 17 16 15 14 14 14 14 13 13 13 13 12 12 12 12 11 13 13 13 13 12 11
28 28 28 27 29 29 29 29 29 30 29 29 28 25 26 25 24 20 18 18 19 19 17 17 16 16 15 15 15 15 14 13 13 13 12 12 11 11 11 11 11 10 10 10
28 26 27 26 28 26 29 30 30 30 30 28 29 28 27 25 24 23 21 21 21 20 19 18 17 16 16 16 16 15 14 14 14 13 13 12 12 12 12 12 12 12 12 12
28 27 27 26 27 28 28 29 28 28 27 28 28 26 25 25 24 23 22 22 22 20 19 17 16 16 16 15 15 14 14 13 14 14 13 13 13 13 13 12 12 12 12 12
28 27 26 27 26 25 27 28 27 27 25 27 26 26 25 25 25 24 22 21 21 20 19 16 16 16 15 14 14 14 14 14 14 14 13 13 12 12 12 12 12 12 12 12
26 26 26 27 26 28 28 27 27 25 25 26 26 26 25 25 23 21 20 21 20 19 18 17 16 16 15 14 14 14 14 14 13 13 13 12 12 12 12 12 12 12 12 11
26 25 27 27 26 25 27 27 26 25 25 25 26 25 24 22 22 22 21 20 19 18 17 17 17 16 15 14 14 14 14 14 13 13 12 12 12 12 13 12 12 12 11 11
25 26 23 24 24 25 26 25 24 24 25 25 25 24 23 22 22 21 21 20 19 18 17 17 17 16 15 14 14 14 14 13 13 13 12 12 12 12 12 12 12 12 12 12
26 26 26 26 27 26 25 24 24 24 24 24 23 23 23 23 22 21 20 19 19 18 17 18 17 17 16 15 14 14 14 13 13 13 13 13 13 13 13 13 13 13 13 14
18 24 26 26 26 25 25 24 24 23 23 23 23 23 23 22 21 21 20 19 18 18 18 18 17 17 16 15 14 14 14 13 13 13 13 13 14 14 14 13 13 14 14 14
26 26 26 24 25 25 25 24 23 23 23 23 23 22 21 22 22 21 20 19 18 18 17 17 17 16 16 15 14 14 14 13 13 13 14 14 15 15 15 15 15 14 14 14